Tracking 19176 objects as of 27-May-2018
HD Live streaming from Space Station
objects crossing your sky now

FORMOSAT 3C

Track FORMOSAT 3C now!
10-day predictions
FORMOSAT 3C is classified as:


NORAD ID: 29049
Int'l Code: 2006-011C
Perigee: 777.2 km
Apogee: 829.6 km
Inclination: 72.0 °
Period: 100.8 minutes
Semi major axis: 7174 km
RCS: 0.6004 m2 (medium)
Launch date: April 15, 2006
Source: Taiwan (Republic of China) (ROC)
Launch site: AIR FORCE WESTERN TEST RANGE (AFWTR)
aabbcc
Your satellite tracking list
Your tracking list is empty




NASA's NSSDC Master Catalog

Two Line Element Set (TLE):
1 29049U 06011C   18146.81968845 +.00000069 +00000-0 +43682-4 0  9993
2 29049 072.0203 285.1574 0036543 269.8785 089.8164 14.28646189632105
Source of the keplerian elements: AFSPC